Time,TemperatureF,DewpointF,PressureIn,WindDirection,WindDirectionDegrees,WindSpeedMPH,WindSpeedGustMPH,Humidity,HourlyPrecipIn,Conditions,Clouds,dailyrainin,SoftwareType,DateUTC
2013-02-26 00:01:00,21.0,14.0,-100.00,WNW,296,16.0,20.0,76,-99.99,,,-99.99,,2013-02-26 07:01:00,
2013-02-26 00:11:00,21.0,15.0,-100.00,WNW,296,18.0,19.0,78,-99.99,,,-99.99,,2013-02-26 07:11:00,
2013-02-26 00:22:00,21.0,15.0,-100.00,WNW,296,18.0,19.0,78,-99.99,,,-99.99,,2013-02-26 07:22:00,
2013-02-26 00:31:00,21.0,14.0,-100.00,WNW,284,18.0,20.0,76,-99.99,,,-99.99,,2013-02-26 07:31:00,
2013-02-26 00:41:00,21.0,14.0,-100.00,WNW,284,18.0,20.0,76,-99.99,,,-99.99,,2013-02-26 07:41:00,
2013-02-26 02:43:00,20.0,16.0,-100.00,WNW,296,14.0,15.0,84,-99.99,,,-99.99,,2013-02-26 09:43:00,
2013-02-26 02:51:00,20.0,16.0,-100.00,WNW,296,14.0,15.0,84,-99.99,,,-99.99,,2013-02-26 09:51:00,
2013-02-26 03:01:00,20.0,16.0,-100.00,WNW,289,11.0,16.0,86,-99.99,,,-99.99,,2013-02-26 10:01:00,
2013-02-26 03:11:00,19.0,15.0,-100.00,WNW,294,17.0,19.0,82,-99.99,,,-99.99,,2013-02-26 10:11:00,
2013-02-26 03:21:00,19.0,15.0,-100.00,WNW,294,17.0,19.0,82,-99.99,,,-99.99,,2013-02-26 10:21:00,
2013-02-26 03:31:00,19.0,15.0,-100.00,WNW,294,17.0,19.0,82,-99.99,,,-99.99,,2013-02-26 10:31:00,
2013-02-26 03:41:00,19.0,14.0,-100.00,WNW,300,13.0,14.0,78,-99.99,,,-99.99,,2013-02-26 10:41:00,
2013-02-26 03:51:00,19.0,14.0,-100.00,WNW,300,13.0,14.0,78,-99.99,,,-99.99,,2013-02-26 10:51:00,
2013-02-26 04:01:00,19.0,13.0,-100.00,WNW,294,14.0,15.0,78,-99.99,,,-99.99,,2013-02-26 11:01:00,
2013-02-26 04:11:00,18.0,14.0,-100.00,WNW,291,22.0,23.0,81,-99.99,,,-99.99,,2013-02-26 11:11:00,
2013-02-26 04:21:00,18.0,12.0,-100.00,WNW,288,17.0,22.0,78,-99.99,,,-99.99,,2013-02-26 11:21:00,
2013-02-26 04:31:00,18.0,12.0,-100.00,WNW,288,17.0,22.0,78,-99.99,,,-99.99,,2013-02-26 11:31:00,
2013-02-26 04:41:00,18.0,13.0,-100.00,WNW,295,14.0,21.0,80,-99.99,,,-99.99,,2013-02-26 11:41:00,
2013-02-26 04:52:00,17.0,13.0,-100.00,NW,312,15.0,15.0,80,-99.99,,,-99.99,,2013-02-26 11:52:00,
2013-02-26 05:01:00,17.0,13.0,-100.00,NW,312,15.0,15.0,80,-99.99,,,-99.99,,2013-02-26 12:01:00,
2013-02-26 05:11:00,18.0,12.0,-100.00,WNW,294,17.0,20.0,77,-99.99,,,-99.99,,2013-02-26 12:11:00,
2013-02-26 05:22:00,18.0,12.0,-100.00,WNW,294,17.0,20.0,77,-99.99,,,-99.99,,2013-02-26 12:22:00,
2013-02-26 05:32:00,18.0,14.0,-100.00,WNW,294,15.0,21.0,83,-99.99,,,-99.99,,2013-02-26 12:32:00,
2013-02-26 05:42:00,18.0,14.0,-100.00,WNW,294,15.0,21.0,83,-99.99,,,-99.99,,2013-02-26 12:42:00,
2013-02-26 05:52:00,18.0,14.0,-100.00,WNW,294,15.0,21.0,83,-99.99,,,-99.99,,2013-02-26 12:52:00,
2013-02-26 06:01:00,18.0,14.0,-100.00,WNW,287,18.0,20.0,85,-99.99,,,-99.99,,2013-02-26 13:01:00,
2013-02-26 06:11:00,18.0,14.0,-100.00,WNW,287,18.0,20.0,85,-99.99,,,-99.99,,2013-02-26 13:11:00,
2013-02-26 06:21:00,18.0,14.0,-100.00,WNW,291,17.0,19.0,85,-99.99,,,-99.99,,2013-02-26 13:21:00,
2013-02-26 06:31:00,18.0,15.0,-100.00,WNW,293,14.0,19.0,85,-99.99,,,-99.99,,2013-02-26 13:31:00,
2013-02-26 06:42:00,18.0,15.0,-100.00,WNW,293,14.0,19.0,85,-99.99,,,-99.99,,2013-02-26 13:42:00,
2013-02-26 06:51:00,19.0,14.0,-100.00,WNW,297,13.0,19.0,83,-99.99,,,-99.99,,2013-02-26 13:51:00,
2013-02-26 07:01:00,18.0,15.0,-100.00,NW,304,15.0,19.0,84,-99.99,,,-99.99,,2013-02-26 14:01:00,
2013-02-26 07:11:00,18.0,15.0,-100.00,NW,304,15.0,19.0,84,-99.99,,,-99.99,,2013-02-26 14:11:00,
2013-02-26 07:21:00,18.0,15.0,-100.00,NW,304,15.0,19.0,84,-99.99,,,-99.99,,2013-02-26 14:21:00,
2013-02-26 07:31:00,19.0,15.0,-100.00,WNW,294,17.0,19.0,84,-99.99,,,-99.99,,2013-02-26 14:31:00,
2013-02-26 07:41:00,18.0,15.0,-100.00,WNW,296,15.0,17.0,84,-99.99,,,-99.99,,2013-02-26 14:41:00,
2013-02-26 07:52:00,18.0,15.0,-100.00,WNW,296,15.0,17.0,84,-99.99,,,-99.99,,2013-02-26 14:52:00,
2013-02-26 08:01:00,18.0,15.0,-100.00,NW,304,11.0,18.0,84,-99.99,,,-99.99,,2013-02-26 15:01:00,
2013-02-26 08:11:00,18.0,14.0,-100.00,WNW,294,14.0,16.0,84,-99.99,,,-99.99,,2013-02-26 15:11:00,
2013-02-26 08:21:00,18.0,14.0,-100.00,WNW,294,14.0,16.0,84,-99.99,,,-99.99,,2013-02-26 15:21:00,
2013-02-26 08:32:00,18.0,15.0,-100.00,WNW,302,17.0,20.0,85,-99.99,,,-99.99,,2013-02-26 15:32:00,
2013-02-26 08:41:00,18.0,15.0,-100.00,WNW,302,17.0,20.0,85,-99.99,,,-99.99,,2013-02-26 15:41:00,
2013-02-26 08:51:00,19.0,15.0,-100.00,WNW,297,17.0,18.0,84,-99.99,,,-99.99,,2013-02-26 15:51:00,
2013-02-26 09:01:00,19.0,15.0,-100.00,WNW,297,17.0,18.0,84,-99.99,,,-99.99,,2013-02-26 16:01:00,
2013-02-26 09:11:00,19.0,15.0,-100.00,WNW,291,18.0,21.0,85,-99.99,,,-99.99,,2013-02-26 16:11:00,
2013-02-26 09:22:00,19.0,15.0,-100.00,WNW,291,18.0,21.0,85,-99.99,,,-99.99,,2013-02-26 16:22:00,
2013-02-26 09:31:00,19.0,15.0,-100.00,WNW,298,14.0,18.0,84,-99.99,,,-99.99,,2013-02-26 16:31:00,
2013-02-26 09:41:00,19.0,14.0,-100.00,NW,311,12.0,16.0,81,-99.99,,,-99.99,,2013-02-26 16:41:00,
2013-02-26 09:51:00,20.0,14.0,-100.00,NW,307,12.0,15.0,79,-99.99,,,-99.99,,2013-02-26 16:51:00,
2013-02-26 10:01:00,20.0,14.0,-100.00,NW,307,12.0,15.0,79,-99.99,,,-99.99,,2013-02-26 17:01:00,
2013-02-26 10:11:00,20.0,11.0,-100.00,NW,318,15.0,17.0,67,-99.99,,,-99.99,,2013-02-26 17:11:00,
2013-02-26 10:21:00,20.0,11.0,-100.00,NW,318,15.0,17.0,67,-99.99,,,-99.99,,2013-02-26 17:21:00,
2013-02-26 10:32:00,20.0,11.0,-100.00,NW,318,15.0,17.0,67,-99.99,,,-99.99,,2013-02-26 17:32:00,
2013-02-26 10:41:00,21.0,11.0,-100.00,NW,314,15.0,17.0,66,-99.99,,,-99.99,,2013-02-26 17:41:00,
2013-02-26 10:50:00,22.0,11.0,-100.00,NW,312,17.0,18.0,60,-99.99,,,-99.99,,2013-02-26 17:50:00,
2013-02-26 10:52:00,21.0,11.0,-100.00,NW,326,15.0,20.0,64,-99.99,,,-99.99,,2013-02-26 17:52:00,
2013-02-26 11:01:00,23.0,11.0,-100.00,NNW,327,14.0,18.0,59,-99.99,,,-99.99,,2013-02-26 18:01:00,
2013-02-26 11:12:00,23.0,11.0,-100.00,NNW,327,14.0,18.0,59,-99.99,,,-99.99,,2013-02-26 18:12:00,
2013-02-26 11:21:00,23.0,11.0,-100.00,NNW,327,14.0,18.0,59,-99.99,,,-99.99,,2013-02-26 18:21:00,
2013-02-26 11:32:00,22.0,11.0,-100.00,NW,312,17.0,18.0,60,-99.99,,,-99.99,,2013-02-26 18:32:00,
2013-02-26 11:42:00,22.0,11.0,-100.00,NW,312,17.0,18.0,60,-99.99,,,-99.99,,2013-02-26 18:42:00,
2013-02-26 15:01:00,21.0,16.0,-100.00,West,279,20.0,23.0,79,-99.99,,,-99.99,,2013-02-26 22:01:00,
2013-02-26 15:11:00,22.0,15.0,-100.00,WNW,286,19.0,22.0,74,-99.99,,,-99.99,,2013-02-26 22:11:00,
2013-02-26 15:21:00,22.0,15.0,-100.00,WNW,286,19.0,22.0,74,-99.99,,,-99.99,,2013-02-26 22:21:00,
2013-02-26 15:31:00,22.0,14.0,-100.00,WNW,295,14.0,22.0,70,-99.99,,,-99.99,,2013-02-26 22:31:00,
2013-02-26 15:41:00,22.0,12.0,-100.00,West,265,22.0,25.0,64,-99.99,,,-99.99,,2013-02-26 22:41:00,
2013-02-26 15:51:00,22.0,12.0,-100.00,West,265,22.0,25.0,64,-99.99,,,-99.99,,2013-02-26 22:51:00,
2013-02-26 16:01:00,23.0,11.0,-100.00,West,278,22.0,25.0,58,-99.99,,,-99.99,,2013-02-26 23:01:00,
2013-02-26 16:11:00,23.0,11.0,-100.00,West,278,22.0,25.0,58,-99.99,,,-99.99,,2013-02-26 23:11:00,
2013-02-26 16:21:00,23.0,12.0,-100.00,West,274,20.0,25.0,61,-99.99,,,-99.99,,2013-02-26 23:21:00,
2013-02-26 16:31:00,24.0,12.0,-100.00,West,264,10.0,20.0,60,-99.99,,,-99.99,,2013-02-26 23:31:00,
2013-02-26 16:41:00,24.0,12.0,-100.00,West,264,10.0,20.0,60,-99.99,,,-99.99,,2013-02-26 23:41:00,
2013-02-26 16:52:00,22.0,11.0,-100.00,WNW,286,18.0,24.0,61,-99.99,,,-99.99,,2013-02-26 23:52:00,
2013-02-26 17:01:00,22.0,12.0,-100.00,West,277,16.0,17.0,63,-99.99,,,-99.99,,2013-02-27 00:01:00,
2013-02-26 17:11:00,22.0,12.0,-100.00,West,277,16.0,17.0,63,-99.99,,,-99.99,,2013-02-27 00:11:00,
2013-02-26 17:21:00,22.0,12.0,-100.00,West,277,16.0,17.0,63,-99.99,,,-99.99,,2013-02-27 00:21:00,
2013-02-26 17:31:00,23.0,12.0,-100.00,WNW,283,14.0,17.0,62,-99.99,,,-99.99,,2013-02-27 00:31:00,
2013-02-26 17:41:00,22.0,10.0,-100.00,West,263,10.0,16.0,58,-99.99,,,-99.99,,2013-02-27 00:41:00,
2013-02-26 17:51:00,22.0,10.0,-100.00,West,263,10.0,16.0,58,-99.99,,,-99.99,,2013-02-27 00:51:00,
2013-02-26 18:01:00,22.0,10.0,-100.00,West,267,8.0,10.0,59,-99.99,,,-99.99,,2013-02-27 01:01:00,
2013-02-26 18:11:00,22.0,10.0,-100.00,West,267,8.0,10.0,59,-99.99,,,-99.99,,2013-02-27 01:11:00,
2013-02-26 18:21:00,20.0,10.0,-100.00,WNW,285,6.0,9.0,64,-99.99,,,-99.99,,2013-02-27 01:21:00,
2013-02-26 18:31:00,20.0,10.0,-100.00,WNW,285,6.0,9.0,64,-99.99,,,-99.99,,2013-02-27 01:31:00,
2013-02-26 18:41:00,19.0,10.0,-100.00,WNW,288,11.0,11.0,68,-99.99,,,-99.99,,2013-02-27 01:41:00,
2013-02-26 18:51:00,19.0,10.0,-100.00,WNW,288,11.0,11.0,68,-99.99,,,-99.99,,2013-02-27 01:51:00,
2013-02-26 19:01:00,19.0,11.0,-100.00,NW,307,11.0,14.0,70,-99.99,,,-99.99,,2013-02-27 02:01:00,
2013-02-26 19:13:00,19.0,11.0,-100.00,NW,307,11.0,14.0,70,-99.99,,,-99.99,,2013-02-27 02:13:00,
2013-02-26 19:21:00,19.0,11.0,-100.00,WNW,297,12.0,14.0,70,-99.99,,,-99.99,,2013-02-27 02:21:00,
2013-02-26 19:31:00,18.0,10.0,-100.00,WNW,301,11.0,13.0,70,-99.99,,,-99.99,,2013-02-27 02:31:00,
2013-02-26 19:41:00,18.0,10.0,-100.00,WNW,301,11.0,13.0,70,-99.99,,,-99.99,,2013-02-27 02:41:00,
2013-02-26 19:52:00,18.0,10.0,-100.00,WNW,301,11.0,13.0,70,-99.99,,,-99.99,,2013-02-27 02:52:00,
2013-02-26 20:01:00,17.0,10.0,-100.00,NW,306,10.0,11.0,71,-99.99,,,-99.99,,2013-02-27 03:01:00,
2013-02-26 20:11:00,16.0,9.0,-100.00,WNW,303,10.0,10.0,72,-99.99,,,-99.99,,2013-02-27 03:11:00,
2013-02-26 20:21:00,16.0,9.0,-100.00,WNW,303,10.0,10.0,72,-99.99,,,-99.99,,2013-02-27 03:21:00,
2013-02-26 20:31:00,16.0,9.0,-100.00,WNW,303,10.0,10.0,72,-99.99,,,-99.99,,2013-02-27 03:31:00,
2013-02-26 20:41:00,17.0,10.0,-100.00,WNW,300,9.0,9.0,74,-99.99,,,-99.99,,2013-02-27 03:41:00,
2013-02-26 20:51:00,17.0,10.0,-100.00,WNW,300,9.0,9.0,74,-99.99,,,-99.99,,2013-02-27 03:51:00,
2013-02-26 21:01:00,17.0,10.0,-100.00,WNW,291,5.0,9.0,71,-99.99,,,-99.99,,2013-02-27 04:01:00,
2013-02-26 21:11:00,16.0,9.0,-100.00,NNW,338,4.0,7.0,74,-99.99,,,-99.99,,2013-02-27 04:11:00,
2013-02-26 21:21:00,16.0,9.0,-100.00,NNW,338,4.0,7.0,74,-99.99,,,-99.99,,2013-02-27 04:21:00,
2013-02-26 21:31:00,16.0,9.0,-100.00,NNW,338,4.0,7.0,74,-99.99,,,-99.99,,2013-02-27 04:31:00,
2013-02-26 21:41:00,17.0,10.0,-100.00,NW,325,1.0,5.0,73,-99.99,,,-99.99,,2013-02-27 04:41:00,
2013-02-26 21:51:00,17.0,10.0,-100.00,NNE,12,1.0,4.0,71,-99.99,,,-99.99,,2013-02-27 04:51:00,
2013-02-26 22:01:00,15.0,8.0,-100.00,NNW,341,3.0,7.0,71,-99.99,,,-99.99,,2013-02-27 05:01:00,
2013-02-26 22:11:00,15.0,8.0,-100.00,NNW,341,3.0,7.0,71,-99.99,,,-99.99,,2013-02-27 05:11:00,
2013-02-26 22:22:00,15.0,8.0,-100.00,NNW,341,3.0,7.0,71,-99.99,,,-99.99,,2013-02-27 05:22:00,
2013-02-26 22:32:00,15.0,8.0,-100.00,North,0,0.0,2.0,73,-99.99,,,-99.99,,2013-02-27 05:32:00,
2013-02-26 22:41:00,12.0,6.0,-100.00,WSW,244,1.0,3.0,74,-99.99,,,-99.99,,2013-02-27 05:41:00,
2013-02-26 22:52:00,12.0,6.0,-100.00,WSW,244,1.0,3.0,74,-99.99,,,-99.99,,2013-02-27 05:52:00,
2013-02-26 23:02:00,11.0,5.0,-100.00,North,0,0.0,1.0,76,-99.99,,,-99.99,,2013-02-27 06:02:00,
2013-02-26 23:11:00,11.0,5.0,-100.00,North,0,0.0,1.0,76,-99.99,,,-99.99,,2013-02-27 06:11:00,
2013-02-26 23:21:00,9.0,4.0,-100.00,East,81,2.0,4.0,78,-99.99,,,-99.99,,2013-02-27 06:21:00,
2013-02-26 23:32:00,11.0,6.0,-100.00,North,0,0.0,3.0,79,-99.99,,,-99.99,,2013-02-27 06:32:00,
2013-02-26 23:41:00,7.0,1.0,-100.00,WSW,258,1.0,2.0,77,-99.99,,,-99.99,,2013-02-27 06:41:00,
2013-02-26 23:51:00,7.0,1.0,-100.00,WSW,258,1.0,2.0,77,-99.99,,,-99.99,,2013-02-27 06:51:00,